DMSP 5D-2 F13 DEB, 40513

Orbit data source: Space-Track

DMSP 5D-2 F13 DEB, 40513 is space debris in SSO originally from a launch on Fri, 24 Mar 1995 UTC launched from the Air Force Western Test Range (AFWTR). Debris objects in space refer to the collection of defunct objects orbiting the Earth. Examples of debris include non-operational satellites, rocket bodies, and fragments generated from explosions, collisions, or faulty payload assembly.

Loading next visibility...
Identifier
40513, 1995-015CZ
Orbit
SSO
Country
Flag of USUS
Related business
Manufacturer
Unknown
Mission
Spacecraft
Bus & Motor
Unknown
Mass
Unknown
Launch date (UTC)
1995-03-24 (31 years ago)
Launch vehicle
Unknown
Launch site
Air Force Western Test Range (AFWTR)
Object type
Payload
Rocket body
Debris
Shape & HBR
Unknown shape, 0.1 m
Radar Cross Section
Small (<0.1 m²)

Expand to show TLE details & history
Last TLE update: 3 days ago

TLE from 3 days ago
0 DMSP 5D-2 F13 DEB
1 40513U 95015CZ  25313.00101113  .00001657  00000-0  76736-3 0  9995
2 40513  98.7753 329.1635 0007415  42.5762 317.5989 14.22176566550266
Epoch: 2025-11-09T00:01Z
TLE epoch observation values (Epoch: 2025-11-09T00:01:27.361Z)
Latitude
-0.00005°
Longitude
-79.62304°
Altitude
816.977 km
Speed
7.447 km/s
True Right ascension
21h 56m 39s
True Declination
0° 00' 00"
Sunlit
Object was in daylight at epoch
Visualization orbit readout
Latitude
Unknown
Longitude
Unknown
Altitude
Unknown
Speed
Unknown
Apparent Right ascension
Unknown
Apparent Declination
Unknown
Sunlit
N/A
Visualization observer readout
Local Sidereal Time
10:01:56
Azimuth
Unknown
Elevation
Unknown
Doppler factor
Unknown
Orbital elements
Apogee altitude
820.494 km
Perigee altitude
809.826 km
Semi-major axis
7,193.297 km
Eccentricity
0.00074
Inclination
98.7753°
RAAN
329.1635°
Arg. of periapsis
42.5762°
True anomaly
317.54156°
Mean anomaly
317.5989°
Eccentric anomaly
317.57024°
Mean motion
3.55755 °/min
Orbital period
101.19 mins
BSTAR
0.00076736
Loading maneuver chart data...
Computing Atmospheric mass density...

Documentation

Showing up to 5 results
|